Overview Statistics Trail Chart Weather Telemetry Raw packets
 

This is the latest recevied weather packets stored in our database for station/object KRYY. If no packets are shown the sender has not sent any weather packets the latest 10 day(s).

<< 44 45 46 47 48 49 50 >>
Time Temp. Humidity Pressure Rain* Wind** Luminosity Snow
1787981616 21.67° C 100% 1020.7 hPa - - - -
1787981016 21.67° C 100% 1020.7 hPa - - - -
1787980416 21.67° C 100% 1020.7 hPa - - - -
1787979816 22.78° C 94% 1020.7 hPa - - - -
1787979215 22.78° C 94% 1020.7 hPa - - - -
1787978618 22.78° C 94% 1020.3 hPa - - - -
1787978020 22.78° C 88% 1020 hPa - - - -
1787977418 22.78° C 88% 1020 hPa - - - -
1787976816 22.78° C 94% 1019.6 hPa - - - -
1787976218 25.56° C 78% 1019.6 hPa - - - -
1787975621 25.56° C 78% 1019.6 hPa - - - -
1787975020 25.56° C 74% 1019.3 hPa - - - -
1787974416 25.56° C 74% 1019.3 hPa - - - -
1787973817 26.67° C 69% 1019 hPa - - - -
1787973217 26.67° C 69% 1019 hPa - - - -
1787972618 26.67° C 69% 1019 hPa - - - -
1787972021 26.67° C 69% 1019 hPa - - - -
1787971417 26.67° C 69% 1018.3 hPa - - - -
1787970818 26.67° C 69% 1018.3 hPa - - - -
1787970216 26.67° C 69% 1018.3 hPa - - - -
1787969618 26.67° C 69% 1018.3 hPa - - - -
1787969019 26.67° C 69% 1018.3 hPa - - - -
1787968415 26.67° C 69% 1018.3 hPa - - - -
1787967814 26.67° C 69% 1017.6 hPa - - - -
1787967217 26.67° C 69% 1017.6 hPa - - - -

* Rain since midnight (hover to see other rain measurements)
** Current wind speed in m/s (hover to see current wind gust speed)